FW1511 Weather Reports


Display with metric or nautical units.
time (UTC)temp
F
wind
direction
speed
MPH
gust
MPH
rain 1hr
in
rain 24hr
in
rain mn
in
humidity
%
barometer
mb
20260905000032 74 181 0.0 3.0 0.00 0.01 0.01 49 1012.4
20260904234534 73 4 0.0 6.0 0.00 0.01 0.01 52 1012.2
20260904233028 74 37 0.0 3.0 0.00 0.01 0.01 52 1012.4
20260904231526 73 324 1.0 7.0 0.00 0.01 0.01 52 1012.3
20260904230025 73 136 0.0 4.0 0.00 0.01 0.01 50 1012.3
20260904224522 72 202 1.0 4.0 0.00 0.01 0.01 52 1012.3
20260904223020 71 18 1.0 4.0 0.00 0.01 0.01 55 1012.6
20260904221519 70 235 1.0 5.0 0.00 0.01 0.01 56 1012.5
20260904220026 69 171 1.0 3.0 0.00 0.01 0.01 58 1012.5
20260904214515 68 169 0.0 3.0 0.00 0.01 0.01 60 1012.5
20260904213014 69 283 1.0 3.0 0.00 0.01 0.01 58 1012.6
20260904211512 68 285 0.0 3.0 0.00 0.01 0.01 61 1012.6
20260904210017 70 240 1.0 4.0 0.00 0.01 0.01 59 1012.6
20260904204510 70 113 1.0 4.0 0.00 0.01 0.01 59 1012.3
20260904203008 70 120 0.0 4.0 0.00 0.01 0.01 65 1012.4
20260904201506 67 199 0.0 2.0 0.00 0.01 0.01 68 1012.4
20260904200007 67 236 1.0 3.0 0.00 0.01 0.01 66 1012.4
20260904194506 67 171 0.0 4.0 0.00 0.01 0.01 66 1012.5
20260904193114 68 84 4.0 9.0 0.00 0.01 0.01 70 1012.2
20260904191555 64 165 0.0 3.0 0.00 0.01 0.01 76 1012.6
20260904190051 62 157 0.0 4.0 0.00 0.01 0.01 84 1012.7
20260904184555 61 161 2.0 5.0 0.00 0.02 0.01 85 1012.8
20260904183045 60 249 1.0 4.0 0.00 0.02 0.01 88 1012.8
20260904181549 57 131 0.0 5.0 0.00 0.02 0.01 93 1012.8
20260904180037 56 161 1.0 4.0 0.00 0.02 0.01 94 1012.9
20260904174557 55 146 1.0 4.0 0.00 0.05 0.01 96 1012.8
20260904173035 55 167 0.0 0.0 0.00 0.05 0.01 98 1012.7
20260904171529 53 166 0.0 0.0 0.00 0.05 0.01 98 1012.7
20260904170027 53 168 0.0 2.0 0.00 0.05 0.01 98 1012.6
20260904164525 52 161 0.0 1.0 0.00 0.05 0.01 98 1012.7
20260904163024 51 155 0.0 1.0 0.00 0.05 0.01 98 1012.8
20260904161520 51 158 0.0 3.0 0.00 0.05 0.01 98 1012.7
20260904160022 51 159 0.0 5.0 0.00 0.05 0.01 98 1012.7
20260904154519 51 156 0.0 0.0 0.00 0.05 0.01 99 1012.5
20260904153020 50 173 0.0 0.0 0.00 0.05 0.01 99 1012.3
20260904151513 50 167 0.0 0.0 0.00 0.05 0.01 98 1012.2
20260904150012 49 160 0.0 0.0 0.00 0.05 0.01 98 1012.3
20260904144510 49 160 0.0 0.0 0.00 0.10 0.01 98 1012.0
20260904143007 48 160 0.0 0.0 0.00 0.10 0.01 98 1011.9
20260904141506 48 160 0.0 0.0 0.00 0.10 0.01 98 1011.8
20260904140004 48 160 0.0 0.0 0.00 0.15 0.01 98 1011.3
20260904134502 48 160 0.0 0.0 0.00 0.15 0.01 98 1011.1
20260904133001 48 160 0.0 0.0 0.00 0.15 0.01 98 1011.0
20260904131501 48 160 0.0 0.0 0.00 0.15 0.01 98 1011.0
20260904130001 48 160 0.0 0.0 0.00 0.22 0.01 98 1010.9
20260904124610 48 136 0.0 0.0 0.00 0.22 0.01 98 1010.9
20260904123114 48 125 0.0 0.0 0.00 0.22 0.01 98 1010.8
20260904121603 48 125 0.0 0.0 0.00 0.22 0.01 98 1010.8
20260904120103 48 125 0.0 0.0 0.00 0.22 0.01 98 1010.8
20260904114556 49 125 0.0 0.0 0.00 0.27 0.01 98 1010.5
20260904113100 49 125 0.0 0.0 0.00 0.27 0.01 98 1010.6
20260904111553 48 111 0.0 0.0 0.01 0.27 0.01 98 1010.4
20260904110056 48 111 0.0 0.0 0.01 0.27 0.01 98 1010.4
20260904104559 48 42 0.0 0.0 0.01 0.32 0.01 98 1010.2
20260904103053 48 42 0.0 0.0 0.01 0.32 0.01 98 1010.1
20260904101603 47 42 0.0 0.0 0.00 0.31 0.00 97 1010.0
20260904100049 47 42 0.0 0.0 0.00 0.31 0.00 97 1010.0
20260904094551 47 42 0.0 0.0 0.00 0.31 0.00 97 1010.1
20260904093109 47 42 0.0 0.0 0.00 0.31 0.00 97 1010.2
20260904091547 47 42 0.0 0.0 0.00 0.31 0.00 97 1010.1
20260904090050 47 42 0.0 0.0 0.00 0.31 0.00 97 1010.3
20260904084547 48 42 0.0 0.0 0.00 0.32 0.00 97 1010.2
20260904083044 48 34 0.0 0.0 0.00 0.32 0.00 97 1010.1
20260904081544 48 34 0.0 0.0 0.00 0.32 0.00 97 1010.0
20260904080042 48 34 0.0 0.0 0.00 0.32 0.00 97 1010.1
20260904074540 48 34 0.0 0.0 0.00 0.32 0.00 96 1010.1
20260904073039 48 34 0.0 0.0 0.00 0.32 0.00 96 1010.1
20260904071535 49 34 0.0 0.0 0.00 0.32 0.00 96 1010.1
20260904070044 49 34 0.0 0.0 0.00 0.32 0.00 96 1010.1
20260904064538 50 34 0.0 0.0 0.00 0.33 0.32 96 1010.0
20260904063028 51 33 0.0 0.0 0.00 0.33 0.32 96 1009.9
20260904061529 51 33 0.0 0.0 0.00 0.33 0.32 96 1009.8
20260904060028 51 33 0.0 0.0 0.00 0.33 0.32 96 1009.8
20260904054532 51 33 0.0 0.0 0.00 0.33 0.32 96 1010.0
20260904053025 51 33 0.0 0.0 0.00 0.33 0.32 95 1009.8
20260904051523 51 33 0.0 0.0 0.00 0.33 0.32 95 1009.8
20260904050022 52 33 0.0 0.0 0.00 0.33 0.32 94 1009.7
20260904044530 52 33 0.0 0.0 0.00 0.33 0.32 94 1009.8
20260904043018 52 33 0.0 0.0 0.00 0.33 0.32 93 1009.7
20260904041516 53 33 0.0 0.0 0.00 0.33 0.32 92 1009.8
20260904040015 53 33 0.0 0.0 0.00 0.33 0.32 91 1009.8
20260904034529 54 33 0.0 0.0 0.00 0.33 0.32 91 1009.8
20260904033011 55 33 0.0 0.0 0.00 0.33 0.32 90 1009.4
20260904031513 56 34 0.0 0.0 0.00 0.33 0.32 89 1009.2
20260904030009 56 34 0.0 0.0 0.00 0.33 0.32 88 1009.2
20260904024509 57 34 0.0 0.0 0.00 0.33 0.32 85 1009.1
20260904023008 57 35 0.0 2.0 0.00 0.33 0.32 86 1009.1
20260904021508 58 34 0.0 3.0 0.00 0.33 0.32 85 1009.0
20260904020008 59 84 0.0 0.0 0.00 0.33 0.32 83 1008.8
20260904014507 59 84 0.0 1.0 0.00 0.33 0.32 82 1008.6
20260904013007 60 114 0.0 3.0 0.00 0.33 0.32 81 1008.6
20260904011514 60 117 1.0 7.0 0.00 0.33 0.32 80 1008.6
20260904010112 61 101 1.0 6.0 0.00 0.33 0.32 79 1008.6
20260904004502 61 134 1.0 6.0 0.00 0.33 0.32 78 1008.8
20260904003001 64 97 0.0 7.0 0.00 0.33 0.32 76 1008.6
20260904001600 64 160 0.0 9.0 0.00 0.33 0.32 77 1008.9